| time (UTC) | temp F | wind direction | speed MPH | gust MPH | rain 1hr in | rain 24hr in | rain mn in | humidity % | barometer mb |
| 20260508054029 | 58 | 87 | 6.0 | 13.0 | 0.00 | 0.00 | 0.00 | 21 | 1017.5 |
| 20260508053022 | 58 | 120 | 6.0 | 10.0 | 0.00 | 0.00 | 0.00 | 22 | 1017.5 |
| 20260508052029 | 58 | 95 | 9.0 | 15.0 | 0.00 | 0.00 | 0.00 | 22 | 1017.4 |
| 20260508051022 | 58 | 89 | 7.0 | 10.0 | 0.00 | 0.00 | 0.00 | 23 | 1017.5 |
| 20260508050029 | 58 | 115 | 5.0 | 8.0 | 0.00 | 0.00 | 0.00 | 22 | 1017.5 |
| 20260508045041 | 59 | 96 | 4.0 | 8.0 | 0.00 | 0.00 | 0.00 | 22 | 1017.4 |
| 20260508044030 | 60 | 100 | 4.0 | 8.0 | 0.00 | 0.00 | 0.00 | 22 | 1017.4 |
| 20260508043041 | 59 | 89 | 4.0 | 8.0 | 0.00 | 0.00 | 0.00 | 23 | 1017.4 |
| 20260508042029 | 60 | 93 | 5.0 | 10.0 | 0.00 | 0.00 | 0.00 | 23 | 1017.4 |
| 20260508041100 | 60 | 88 | 6.0 | 10.0 | 0.00 | 0.00 | 0.00 | 23 | 1017.4 |
| 20260508040049 | 61 | 112 | 4.0 | 8.0 | 0.00 | 0.00 | 0.00 | 22 | 1017.4 |
| 20260508035022 | 62 | 116 | 3.0 | 8.0 | 0.00 | 0.00 | 0.00 | 21 | 1017.3 |
| 20260508034028 | 62 | 114 | 1.0 | 3.0 | 0.00 | 0.00 | 0.00 | 22 | 1017.0 |
| 20260508033022 | 62 | 105 | 1.0 | 5.0 | 0.00 | 0.00 | 0.00 | 21 | 1016.8 |
| 20260508032030 | 64 | 90 | 2.0 | 8.0 | 0.00 | 0.00 | 0.00 | 19 | 1016.6 |
| 20260508031041 | 67 | 93 | 0.0 | 3.0 | 0.00 | 0.00 | 0.00 | 15 | 1016.5 |
| 20260508030030 | 66 | 41 | 1.0 | 8.0 | 0.00 | 0.00 | 0.00 | 16 | 1016.4 |
| 20260508025020 | 66 | 131 | 1.0 | 5.0 | 0.00 | 0.00 | 0.00 | 19 | 1016.3 |
| 20260508024029 | 68 | 76 | 2.0 | 5.0 | 0.00 | 0.00 | 0.00 | 17 | 1016.2 |
| 20260508023022 | 68 | 146 | 1.0 | 5.0 | 0.00 | 0.00 | 0.00 | 16 | 1016.1 |
| 20260508022029 | 69 | 174 | 1.0 | 5.0 | 0.00 | 0.00 | 0.00 | 15 | 1015.9 |
| 20260508021021 | 69 | 167 | 3.0 | 8.0 | 0.00 | 0.00 | 0.00 | 15 | 1015.8 |
| 20260508020031 | 70 | 168 | 3.0 | 10.0 | 0.00 | 0.00 | 0.00 | 15 | 1015.7 |
| 20260508015021 | 71 | 185 | 5.0 | 10.0 | 0.00 | 0.00 | 0.00 | 15 | 1015.6 |
| 20260508014050 | 72 | 171 | 7.0 | 13.0 | 0.00 | 0.00 | 0.00 | 14 | 1015.5 |
| 20260508013020 | 72 | 173 | 7.0 | 15.0 | 0.00 | 0.00 | 0.00 | 13 | 1015.4 |
| 20260508012029 | 73 | 183 | 8.0 | 15.0 | 0.00 | 0.00 | 0.00 | 13 | 1015.3 |
| 20260508011022 | 73 | 185 | 6.0 | 15.0 | 0.00 | 0.00 | 0.00 | 13 | 1015.2 |
| 20260508010109 | 74 | 189 | 5.0 | 13.0 | 0.00 | 0.00 | 0.00 | 13 | 1015.2 |
| 20260508005022 | 74 | 163 | 6.0 | 15.0 | 0.00 | 0.00 | 0.00 | 12 | 1015.2 |
| 20260508004029 | 74 | 187 | 8.0 | 20.0 | 0.00 | 0.00 | 0.00 | 12 | 1015.2 |
| 20260508003021 | 75 | 200 | 4.0 | 18.0 | 0.00 | 0.00 | 0.00 | 12 | 1015.3 |
| 20260508002030 | 75 | 209 | 4.0 | 10.0 | 0.00 | 0.00 | 0.00 | 11 | 1015.2 |
| 20260508001021 | 74 | 180 | 6.0 | 18.0 | 0.00 | 0.00 | 0.00 | 12 | 1015.3 |
| 20260508000030 | 75 | 198 | 5.0 | 13.0 | 0.00 | 0.00 | 0.00 | 11 | 1015.3 |
| 20260507235020 | 76 | 198 | 7.0 | 15.0 | 0.00 | 0.00 | 0.00 | 11 | 1015.4 |
| 20260507234029 | 74 | 188 | 6.0 | 20.0 | 0.00 | 0.00 | 0.00 | 11 | 1015.4 |
| 20260507233022 | 75 | 191 | 7.0 | 13.0 | 0.00 | 0.00 | 0.00 | 11 | 1015.5 |
| 20260507232029 | 75 | 236 | 8.0 | 25.0 | 0.00 | 0.00 | 0.00 | 11 | 1015.6 |
| 20260507231042 | 75 | 355 | 2.0 | 8.0 | 0.00 | 0.00 | 0.00 | 11 | 1015.7 |
| 20260507230050 | 74 | 195 | 9.0 | 20.0 | 0.00 | 0.00 | 0.00 | 12 | 1015.9 |
| 20260507225021 | 74 | 132 | 5.0 | 13.0 | 0.00 | 0.00 | 0.00 | 11 | 1016.0 |
| 20260507224030 | 75 | 179 | 4.0 | 10.0 | 0.00 | 0.00 | 0.00 | 12 | 1016.1 |
| 20260507223023 | 74 | 323 | 2.0 | 10.0 | 0.00 | 0.00 | 0.00 | 12 | 1016.2 |
| 20260507222030 | 73 | 177 | 6.0 | 18.0 | 0.00 | 0.00 | 0.00 | 13 | 1016.4 |
| 20260507221042 | 74 | 191 | 7.0 | 18.0 | 0.00 | 0.00 | 0.00 | 13 | 1016.5 |
| 20260507220029 | 73 | 150 | 6.0 | 15.0 | 0.00 | 0.00 | 0.00 | 13 | 1016.7 |
| 20260507215022 | 74 | 173 | 2.0 | 10.0 | 0.00 | 0.00 | 0.00 | 13 | 1017.0 |
| 20260507214030 | 73 | 198 | 8.0 | 18.0 | 0.00 | 0.00 | 0.00 | 14 | 1017.1 |
| 20260507213022 | 74 | 208 | 4.0 | 13.0 | 0.00 | 0.00 | 0.00 | 14 | 1017.4 |
| 20260507212030 | 73 | 133 | 4.0 | 13.0 | 0.00 | 0.00 | 0.00 | 15 | 1017.6 |
| 20260507211021 | 70 | 167 | 4.0 | 10.0 | 0.00 | 0.00 | 0.00 | 16 | 1017.8 |
| 20260507210030 | 73 | 216 | 5.0 | 13.0 | 0.00 | 0.00 | 0.00 | 16 | 1018.0 |
| 20260507205022 | 71 | 170 | 6.0 | 15.0 | 0.00 | 0.00 | 0.00 | 17 | 1018.2 |
| 20260507204029 | 69 | 177 | 6.0 | 10.0 | 0.00 | 0.00 | 0.00 | 17 | 1018.3 |
| 20260507203022 | 70 | 193 | 9.0 | 23.0 | 0.00 | 0.00 | 0.00 | 17 | 1018.5 |
| 20260507202030 | 72 | 175 | 5.0 | 13.0 | 0.00 | 0.00 | 0.00 | 17 | 1018.7 |
| 20260507201021 | 71 | 252 | 5.0 | 13.0 | 0.00 | 0.00 | 0.00 | 17 | 1018.8 |
| 20260507200050 | 68 | 68 | 4.0 | 10.0 | 0.00 | 0.00 | 0.00 | 18 | 1018.9 |
| 20260507195043 | 71 | 270 | 6.0 | 20.0 | 0.00 | 0.00 | 0.00 | 17 | 1019.1 |
| 20260507194050 | 68 | 180 | 3.0 | 8.0 | 0.00 | 0.00 | 0.00 | 18 | 1019.3 |
| 20260507193022 | 69 | 218 | 5.0 | 13.0 | 0.00 | 0.00 | 0.00 | 18 | 1019.4 |
| 20260507192029 | 66 | 23 | 6.0 | 13.0 | 0.00 | 0.00 | 0.00 | 19 | 1019.6 |
| 20260507191038 | 67 | 279 | 6.0 | 18.0 | 0.00 | 0.00 | 0.00 | 19 | 1019.9 |
| 20260507190030 | 67 | 304 | 6.0 | 15.0 | 0.00 | 0.00 | 0.00 | 19 | 1019.9 |
| 20260507185037 | 66 | 266 | 5.0 | 10.0 | 0.00 | 0.00 | 0.00 | 21 | 1020.2 |
| 20260507184051 | 66 | 211 | 6.0 | 15.0 | 0.00 | 0.00 | 0.00 | 22 | 1020.4 |
| 20260507183041 | 65 | 280 | 7.0 | 15.0 | 0.00 | 0.00 | 0.00 | 23 | 1020.6 |
| 20260507182030 | 65 | 50 | 6.0 | 20.0 | 0.00 | 0.00 | 0.00 | 23 | 1020.7 |
| 20260507181023 | 63 | 334 | 7.0 | 20.0 | 0.00 | 0.00 | 0.00 | 24 | 1020.9 |
| 20260507180029 | 64 | 356 | 4.0 | 15.0 | 0.00 | 0.00 | 0.00 | 24 | 1021.0 |
| 20260507175022 | 62 | 317 | 8.0 | 18.0 | 0.00 | 0.00 | 0.00 | 25 | 1021.2 |
| 20260507174109 | 62 | 278 | 8.0 | 18.0 | 0.00 | 0.00 | 0.00 | 25 | 1021.3 |
| 20260507173022 | 61 | 331 | 9.0 | 20.0 | 0.00 | 0.00 | 0.00 | 26 | 1021.4 |
| 20260507172051 | 61 | 354 | 7.0 | 15.0 | 0.00 | 0.00 | 0.00 | 27 | 1021.5 |
| 20260507171021 | 60 | 315 | 6.0 | 15.0 | 0.00 | 0.00 | 0.00 | 30 | 1021.7 |
| 20260507170030 | 59 | 316 | 8.0 | 20.0 | 0.00 | 0.00 | 0.00 | 33 | 1021.8 |
| 20260507165023 | 59 | 330 | 8.0 | 18.0 | 0.00 | 0.00 | 0.00 | 36 | 1021.8 |
| 20260507164030 | 58 | 338 | 6.0 | 13.0 | 0.00 | 0.00 | 0.00 | 37 | 1021.9 |
| 20260507163023 | 56 | 317 | 7.0 | 18.0 | 0.00 | 0.00 | 0.00 | 39 | 1022.0 |
| 20260507162029 | 56 | 333 | 7.0 | 13.0 | 0.00 | 0.00 | 0.00 | 41 | 1022.2 |
| 20260507161022 | 57 | 42 | 4.0 | 13.0 | 0.00 | 0.00 | 0.00 | 38 | 1022.2 |
| 20260507160031 | 55 | 326 | 6.0 | 13.0 | 0.00 | 0.00 | 0.00 | 40 | 1022.2 |
| 20260507155021 | 53 | 348 | 7.0 | 15.0 | 0.00 | 0.00 | 0.00 | 44 | 1022.3 |
| 20260507154030 | 53 | 261 | 5.0 | 13.0 | 0.00 | 0.00 | 0.00 | 45 | 1022.4 |
| 20260507153023 | 51 | 21 | 4.0 | 8.0 | 0.00 | 0.00 | 0.00 | 49 | 1022.5 |
| 20260507152030 | 50 | 356 | 7.0 | 10.0 | 0.00 | 0.00 | 0.00 | 52 | 1022.6 |
| 20260507151022 | 49 | 343 | 6.0 | 13.0 | 0.00 | 0.00 | 0.00 | 55 | 1022.6 |
| 20260507150029 | 48 | 352 | 4.0 | 10.0 | 0.00 | 0.00 | 0.00 | 57 | 1022.7 |
| 20260507145022 | 47 | 10 | 7.0 | 15.0 | 0.00 | 0.00 | 0.00 | 61 | 1022.8 |
| 20260507144051 | 47 | 40 | 6.0 | 15.0 | 0.00 | 0.00 | 0.00 | 62 | 1022.8 |
| 20260507143021 | 45 | 359 | 9.0 | 18.0 | 0.00 | 0.00 | 0.00 | 65 | 1022.8 |
| 20260507142051 | 44 | 337 | 11.0 | 20.0 | 0.00 | 0.00 | 0.00 | 67 | 1022.8 |
| 20260507141023 | 43 | 358 | 10.0 | 20.0 | 0.00 | 0.00 | 0.00 | 68 | 1022.8 |
| 20260507140030 | 43 | 6 | 8.0 | 23.0 | 0.00 | 0.00 | 0.00 | 69 | 1022.9 |
| 20260507134029 | 41 | 350 | 9.0 | 15.0 | 0.00 | 0.00 | 0.00 | 71 | 1022.7 |
| 20260507133042 | 41 | 30 | 7.0 | 20.0 | 0.00 | 0.00 | 0.00 | 73 | 1022.6 |
| 20260507132031 | 40 | 31 | 5.0 | 13.0 | 0.00 | 0.00 | 0.00 | 74 | 1022.6 |
| 20260507131022 | 39 | 33 | 5.0 | 13.0 | 0.00 | 0.00 | 0.00 | 76 | 1022.5 |
| 20260507130030 | 38 | 0 | 7.0 | 13.0 | 0.00 | 0.00 | 0.00 | 78 | 1022.5 |
| 20260507125021 | 37 | 21 | 5.0 | 18.0 | 0.00 | 0.00 | 0.00 | 78 | 1022.4 |
| 20260507124050 | 37 | 78 | 4.0 | 10.0 | 0.00 | 0.00 | 0.00 | 76 | 1022.5 |
| 20260507123023 | 37 | 11 | 9.0 | 20.0 | 0.00 | 0.00 | 0.00 | 73 | 1022.3 |
| 20260507122030 | 36 | 44 | 4.0 | 13.0 | 0.00 | 0.00 | 0.00 | 71 | 1022.2 |
| 20260507121023 | 37 | 31 | 6.0 | 15.0 | 0.00 | 0.00 | 0.00 | 73 | 1022.1 |
| 20260507120030 | 38 | 29 | 6.0 | 13.0 | 0.00 | 0.00 | 0.00 | 73 | 1022.1 |
| 20260507115042 | 38 | 25 | 3.0 | 13.0 | 0.00 | 0.00 | 0.00 | 71 | 1022.2 |
| 20260507114029 | 38 | 8 | 7.0 | 13.0 | 0.00 | 0.00 | 0.00 | 69 | 1022.1 |
| 20260507113118 | 39 | 33 | 6.0 | 13.0 | 0.00 | 0.00 | 0.00 | 66 | 1022.2 |
| 20260507112031 | 38 | 355 | 2.0 | 5.0 | 0.00 | 0.00 | 0.00 | 67 | 1022.2 |
| 20260507111058 | 38 | 93 | 1.0 | 3.0 | 0.00 | 0.00 | 0.00 | 67 | 1022.2 |
| 20260507110031 | 39 | 103 | 1.0 | 3.0 | 0.00 | 0.00 | 0.00 | 67 | 1022.1 |
| 20260507105022 | 39 | 60 | 3.0 | 8.0 | 0.00 | 0.00 | 0.00 | 65 | 1022.1 |
| 20260507104030 | 39 | 41 | 3.0 | 5.0 | 0.00 | 0.00 | 0.00 | 66 | 1022.2 |
| 20260507103021 | 39 | 27 | 5.0 | 10.0 | 0.00 | 0.00 | 0.00 | 67 | 1022.2 |
| 20260507102031 | 40 | 23 | 3.0 | 8.0 | 0.00 | 0.00 | 0.00 | 67 | 1022.1 |
| 20260507101023 | 40 | 25 | 1.0 | 5.0 | 0.00 | 0.00 | 0.00 | 67 | 1022.1 |
| 20260507100030 | 40 | 42 | 4.0 | 8.0 | 0.00 | 0.00 | 0.00 | 66 | 1022.0 |
| 20260507095043 | 41 | 341 | 6.0 | 13.0 | 0.00 | 0.00 | 0.00 | 63 | 1022.0 |
| 20260507094030 | 41 | 51 | 3.0 | 8.0 | 0.00 | 0.00 | 0.00 | 59 | 1022.0 |
| 20260507093022 | 42 | 12 | 3.0 | 8.0 | 0.00 | 0.00 | 0.00 | 55 | 1021.9 |
| 20260507092029 | 42 | 97 | 1.0 | 5.0 | 0.00 | 0.00 | 0.00 | 53 | 1022.0 |
| 20260507091022 | 43 | 95 | 2.0 | 5.0 | 0.00 | 0.00 | 0.00 | 51 | 1021.9 |
| 20260507090031 | 45 | 35 | 5.0 | 13.0 | 0.00 | 0.00 | 0.00 | 47 | 1022.0 |
| 20260507085022 | 45 | 12 | 6.0 | 13.0 | 0.00 | 0.00 | 0.00 | 41 | 1021.8 |
| 20260507084030 | 46 | 114 | 1.0 | 3.0 | 0.00 | 0.00 | 0.00 | 36 | 1021.8 |
| 20260507083041 | 47 | 45 | 3.0 | 8.0 | 0.00 | 0.00 | 0.00 | 33 | 1021.7 |
| 20260507082030 | 48 | 85 | 1.0 | 5.0 | 0.00 | 0.00 | 0.00 | 32 | 1021.7 |
| 20260507081023 | 47 | 36 | 5.0 | 10.0 | 0.00 | 0.00 | 0.00 | 32 | 1021.6 |
| 20260507080030 | 46 | 97 | 1.0 | 5.0 | 0.00 | 0.00 | 0.00 | 35 | 1021.7 |
| 20260507075023 | 46 | 105 | 1.0 | 3.0 | 0.00 | 0.00 | 0.00 | 36 | 1021.6 |
| 20260507074045 | 47 | 108 | 0.0 | 3.0 | 0.00 | 0.00 | 0.00 | 35 | 1021.5 |
| 20260507073023 | 48 | 100 | 1.0 | 3.0 | 0.00 | 0.00 | 0.00 | 33 | 1021.5 |
| 20260507072031 | 48 | 61 | 3.0 | 8.0 | 0.00 | 0.00 | 0.00 | 33 | 1021.3 |
| 20260507071042 | 47 | 106 | 1.0 | 3.0 | 0.00 | 0.00 | 0.00 | 35 | 1021.3 |
| 20260507070131 | 47 | 80 | 1.0 | 5.0 | 0.00 | 0.00 | 0.00 | 35 | 1021.2 |
| 20260507065022 | 48 | 106 | 0.0 | 3.0 | 0.00 | 0.00 | 0.00 | 35 | 1021.2 |
| 20260507064031 | 49 | 101 | 1.0 | 3.0 | 0.00 | 0.00 | 0.00 | 34 | 1021.2 |
| 20260507063021 | 48 | 89 | 2.0 | 5.0 | 0.00 | 0.00 | 0.00 | 34 | 1021.2 |
| 20260507062050 | 49 | 107 | 0.0 | 3.0 | 0.00 | 0.00 | 0.00 | 35 | 1021.1 |
| 20260507061023 | 50 | 112 | 0.0 | 3.0 | 0.00 | 0.00 | 0.00 | 34 | 1021.0 |
| 20260507060030 | 51 | 61 | 3.0 | 8.0 | 0.00 | 0.00 | 0.00 | 34 | 1020.9 |
| 20260507055023 | 51 | 68 | 2.0 | 10.0 | 0.00 | 0.00 | 0.00 | 34 | 1021.0 |